sat.trackr.live / text

‹ back to catalog

STARLINK-1234

NORAD 45190 · 2020-012N

PAYLOAD ACTIVE UNKNOWN

§ Identity

Operator
Country
US
Launch date
2020-02-17
Launch site
AFETR
Launch vehicle
Mass (kg)
RCS (m²)

Purposes: comms

External: N2YO · Heavens-Above · Gunter

§ Orbital elements

Epoch: 2026-09-13T21:03:24.089760Z

Period
88.09 min
Inclination
53.0136°
Eccentricity
0.0008149
Mean motion
16.34760025 rev/d
Perigee alt
174.4 km
Apogee alt
185.1 km
Semi-major
6,557.9 km
B*
5.9879e-4
RAAN
99.6063°
Arg perigee
279.5062°
Mean anomaly
80.5060°
Rev number
36,564

§ Raw data

STARLINK-12341 45190U 20012N   26256.87736215  .04570326  12224-4  59879-3 0  99972 45190  53.0136  99.6063 0008149 279.5062  80.5060 16.34760025365642

JSON: /api/v1/satellites/45190 · /tle

For live sub-satellite position, see the globe view (requires WebGL).

§ Visibility from observer

Set your observer location to see the next 7 days of passes ≥ 10°. The values pass through the URL so the page stays shareable.

No JS? Fill the form by hand. The geolocation button needs JavaScript.